Temperature
24 21 20 21 21 23 24 24 24 26 27 27 26 26 26 26 26 25 24 24 23 23 24 23 23 22 22 21 21 21 21 20 20 20 19 19 19 19 19 18 18 19 18 18
22 21 22 23 24 24 24 24 24 25 27 27 26 26 26 25 25 25 24 24 23 23 23 23 23 22 22 21 21 21 21 20 20 20 20 19 19 19 19 19 18 19 19 18
21 22 24 24 24 24 24 24 24 25 26 27 26 25 25 25 26 26 25 25 24 23 23 23 22 22 22 22 21 21 21 21 20 20 20 19 19 18 18 18 18 18 18 18
22 23 25 24 24 25 23 25 26 26 25 23 25 23 24 24 24 24 24 24 24 23 23 23 23 22 22 22 21 21 21 21 20 20 20 19 19 19 19 19 19 18 18 18
22 24 24 24 25 25 24 26 26 26 25 23 24 23 22 23 23 23 24 24 24 24 23 23 23 23 23 22 21 21 21 20 20 20 20 19 19 19 19 19 19 19 18 18
23 25 25 25 26 26 26 26 25 22 21 22 23 23 22 22 23 23 23 24 24 24 23 23 23 23 22 22 21 21 20 20 20 20 19 19 19 19 19 19 19 18 18 18
23 24 25 26 25 26 26 22 21 21 20 21 22 23 21 22 23 23 23 24 25 24 23 23 23 22 22 21 21 21 20 20 20 19 19 19 19 19 19 19 19 18 18 18
21 21 24 25 25 24 23 21 20 21 21 20 22 22 22 23 24 25 25 25 24 24 23 23 23 23 22 22 21 21 20 20 20 19 19 19 19 18 18 19 18 18 18 18
20 21 25 26 26 25 24 22 21 20 21 21 21 22 23 23 23 23 24 24 23 23 23 23 23 22 22 22 21 21 21 20 20 19 19 19 19 18 18 18 18 18 18 18
21 22 24 26 27 26 24 23 20 20 20 21 22 22 21 22 22 22 22 22 23 23 22 22 22 22 22 22 21 21 21 20 20 19 19 19 19 18 18 18 18 18 18 17
22 21 22 24 24 24 24 23 21 18 19 20 21 21 22 21 21 21 21 22 22 22 22 22 22 22 22 21 21 20 20 20 20 19 19 19 19 18 18 18 18 18 17 17
21 19 20 22 24 25 24 23 20 20 20 19 19 20 22 21 21 21 21 22 22 22 22 22 22 22 21 21 21 20 20 20 20 19 19 19 19 18 18 18 17 17 17 17
21 19 20 21 22 24 24 23 21 19 18 18 19 21 22 21 21 22 22 21 21 22 22 22 21 21 21 21 20 20 20 20 19 19 19 19 18 18 18 18 17 17 17 17
22 18 19 20 21 22 24 24 23 20 19 19 20 21 21 20 20 20 21 21 21 21 21 21 21 21 21 20 20 20 20 19 19 19 19 19 18 18 18 17 17 17 17 17
20 19 20 21 23 24 24 24 24 22 20 20 21 21 20 20 20 20 20 21 20 21 21 21 21 21 20 20 20 19 19 19 19 19 18 18 18 18 18 17 17 17 17 17
17 19 20 22 24 24 24 24 24 24 23 22 21 21 20 20 21 20 20 20 20 20 20 20 20 20 20 19 19 19 19 19 19 18 18 18 18 17 17 17 17 17 17 16
17 18 18 19 22 23 22 22 23 23 22 22 21 20 20 19 20 20 20 20 20 20 20 20 20 20 19 19 19 19 18 18 18 18 18 17 17 17 17 17 17 16 16 16
17 17 16 18 21 21 21 21 22 22 21 21 21 20 20 19 20 20 20 20 20 20 20 19 19 19 19 19 19 18 18 18 18 17 17 17 17 17 16 16 16 16 16 16
17 17 16 17 19 20 21 21 21 21 19 20 20 20 19 19 19 18 19 20 20 19 19 19 19 19 19 18 18 18 18 17 17 17 16 16 16 16 16 16 16 16 16 16
16 16 16 17 19 19 19 20 21 20 19 19 19 19 19 19 18 17 18 19 19 19 19 18 18 18 18 18 18 17 17 17 16 16 16 16 16 16 16 16 15 15 15 15
17 16 16 17 18 18 18 19 21 19 18 18 19 19 19 17 18 17 18 18 18 18 18 18 17 17 17 17 17 17 16 16 16 16 16 15 15 15 15 15 15 15 15 15
16 16 16 16 17 18 18 18 18 17 18 18 18 18 18 18 17 17 17 17 17 17 17 17 17 17 16 16 16 16 16 15 15 15 15 15 15 15 15 15 14 14 14 14
15 15 14 15 15 16 17 17 18 18 18 18 17 18 18 17 16 16 16 16 16 16 16 16 16 16 15 15 15 15 15 15 15 15 15 14 14 14 14 14 14 14 14 14
15 14 14 14 15 15 17 17 18 18 18 18 18 18 18 17 16 16 16 15 15 15 15 15 15 15 15 14 15 15 15 15 14 14 14 14 14 14 14 13 13 13 13 13
14 14 14 14 15 15 16 17 17 17 17 17 17 17 17 17 16 15 15 15 15 14 14 14 15 14 14 14 14 14 14 14 14 14 13 13 13 13 13 13 12 12 12 12
13 14 14 14 14 14 15 17 17 17 17 17 16 16 16 16 15 15 14 14 14 14 14 14 14 14 14 14 13 13 13 14 14 13 13 13 13 12 12 12 12 11 11 11
Wind_Speed
5 4 7 10 9 8 5 6 10 11 10 3 7 9 11 12 13 16 16 17 18 18 15 15 16 16 15 14 15 14 14 12 10 8 7 6 6 6 6 7 12 14 13 13
2 8 11 8 7 8 9 10 12 12 8 2 5 7 8 11 16 17 19 19 19 15 14 15 16 16 17 17 16 15 14 13 12 9 7 5 5 5 6 6 9 13 13 13
11 7 9 10 9 9 11 10 11 9 8 4 3 2 3 5 7 11 15 17 18 20 21 19 18 17 16 17 17 16 14 13 12 10 6 5 4 3 3 5 6 8 12 12
8 10 8 10 12 11 11 11 10 9 4 4 2 3 6 4 4 7 11 13 15 17 16 17 17 17 17 17 16 14 14 13 11 11 9 9 7 7 7 6 6 7 10 11
8 9 11 12 15 13 11 10 7 5 3 2 2 3 7 2 5 8 10 14 15 16 18 18 17 17 16 15 14 13 12 12 11 11 11 10 8 6 5 5 7 7 7 9
10 8 9 13 14 12 10 5 4 4 4 2 5 4 6 5 9 9 9 12 15 16 16 16 15 12 12 13 13 12 13 12 11 11 11 11 11 9 8 7 8 7 6 6
8 10 9 8 8 8 5 4 3 4 3 6 4 3 8 8 7 10 11 11 12 14 15 14 13 12 13 14 14 13 14 12 12 12 12 12 11 11 11 9 9 8 6 6
7 8 9 8 10 8 7 11 9 6 5 5 3 4 8 6 4 5 8 9 10 12 13 15 15 13 12 13 14 13 14 12 12 12 12 11 11 9 8 9 8 9 8 8
8 8 7 8 8 10 7 7 10 8 3 1 4 5 6 3 2 4 7 9 10 11 12 13 12 11 10 12 13 13 13 11 12 11 10 10 10 9 9 8 8 7 7 7
8 6 7 7 4 6 10 9 7 6 5 3 4 3 4 3 1 2 6 8 9 10 10 10 11 11 10 10 10 10 11 11 10 10 10 9 9 9 8 8 8 8 8 8
9 6 6 2 6 8 4 5 6 6 7 6 3 6 6 7 5 6 6 6 9 10 9 8 8 9 9 7 7 8 8 8 8 9 9 8 8 8 8 8 8 8 7 8
8 6 6 8 8 9 8 9 9 7 5 6 5 7 5 5 5 7 8 7 7 8 8 8 8 9 8 7 7 7 7 7 8 8 8 8 7 7 7 7 7 7 7 7
6 6 3 6 5 2 5 6 7 8 6 5 5 6 2 3 4 5 7 7 7 7 7 6 7 8 8 7 6 6 6 6 6 7 7 7 6 6 6 6 6 5 6 5
6 5 7 9 8 5 4 4 6 8 5 5 7 6 3 4 6 6 7 7 8 8 8 7 7 8 7 7 6 5 4 4 5 6 7 6 6 6 6 5 4 5 5 4
6 4 5 5 4 4 4 5 6 6 9 9 9 9 10 10 9 9 9 9 9 10 9 9 9 7 7 6 6 5 5 4 5 6 6 5 5 4 5 5 4 4 4 4
4 3 2 3 2 1 2 3 5 5 5 6 7 6 6 8 8 9 10 11 10 10 10 9 9 8 7 7 7 6 5 5 6 6 6 5 5 5 5 5 5 5 4 4
2 4 3 2 3 2 2 4 5 4 4 8 8 7 8 9 11 12 12 11 11 9 9 9 8 7 7 6 6 6 6 6 7 7 6 6 6 5 5 5 5 5 4 4
4 4 3 1 3 4 5 3 2 5 2 3 7 9 11 10 7 7 8 11 10 9 9 9 8 7 7 6 7 7 8 8 8 7 6 5 5 5 5 6 6 5 4 5
6 6 4 3 3 2 4 4 1 4 3 2 7 10 10 12 11 7 5 8 10 9 9 8 8 8 8 8 7 9 8 8 8 7 6 5 5 6 6 6 5 5 6 6
4 6 5 4 4 4 5 6 2 7 2 1 7 11 10 9 6 4 5 10 11 11 9 9 8 9 9 7 8 10 8 8 7 6 5 5 6 6 6 5 5 6 7 7
3 3 4 4 3 3 5 7 2 5 5 2 6 9 7 4 5 8 10 11 11 10 10 10 10 9 7 7 9 9 8 7 6 6 7 7 6 7 7 7 6 7 8 8
3 4 4 4 3 4 4 3 3 5 4 6 7 7 9 10 12 12 12 12 11 10 10 10 10 8 6 7 9 9 8 6 7 8 8 8 7 7 7 8 7 7 8 8
1 3 4 4 5 3 0 3 3 5 7 5 6 10 13 11 12 12 11 10 10 9 9 8 10 9 6 6 8 9 6 7 9 10 9 9 9 9 8 8 7 7 6 7
3 3 3 3 2 2 3 4 6 8 8 7 9 11 12 12 12 12 11 10 9 8 8 8 9 9 7 6 6 7 7 8 10 10 9 9 10 10 9 8 7 6 6 6
3 3 3 3 1 4 5 4 7 9 10 10 9 9 12 14 12 12 11 10 9 8 7 7 8 8 8 7 7 7 8 9 11 10 9 9 9 10 10 10 8 7 6 5
2 1 3 3 4 3 3 3 7 10 9 9 11 11 10 12 13 12 11 10 9 9 8 8 8 8 8 7 8 7 7 9 11 10 9 8 8 8 8 10 11 16 13 15
Wind_Direction
202 151 211 219 206 208 244 285 287 282 288 253 184 189 194 183 178 177 181 182 187 189 185 177 174 171 168 168 171 172 169 172 166 164 164 166 174 176 179 186 183 178 179 176
199 229 222 218 229 236 252 268 277 288 293 264 194 201 195 183 185 182 181 186 187 179 174 178 174 174 174 174 176 175 175 176 176 175 169 170 168 177 182 186 187 184 180 178
201 227 206 216 237 244 252 240 251 261 299 334 145 268 252 208 190 188 182 182 182 180 179 179 178 178 176 179 181 182 181 179 177 169 156 150 140 145 170 185 190 194 186 183
233 240 232 220 232 228 251 244 243 254 266 279 154 222 267 218 195 184 182 177 180 181 178 178 177 177 181 184 182 181 180 179 177 171 172 173 179 189 196 188 188 190 190 186
231 214 216 227 231 223 232 245 244 246 211 287 342 155 271 229 191 202 187 178 181 182 179 180 181 182 183 181 180 179 176 179 178 179 182 184 191 194 184 178 183 191 195 193
242 246 213 222 234 225 226 253 333 32 73 274 246 168 257 227 200 192 189 178 177 177 179 180 179 174 179 176 178 178 179 185 184 185 188 191 192 190 184 187 191 198 198 198
266 262 251 234 237 247 198 130 29 349 360 252 261 175 243 246 205 184 181 182 178 172 173 174 173 172 177 178 181 183 184 190 190 192 195 196 196 195 196 194 197 197 199 204
214 260 239 219 203 205 193 151 162 188 215 271 319 229 254 255 198 168 167 162 159 164 170 174 176 175 179 179 181 184 187 191 192 196 200 199 197 199 202 200 199 203 205 207
194 240 255 226 202 177 179 177 170 144 171 238 281 283 314 346 73 130 146 140 152 160 167 172 172 173 179 181 183 185 187 190 194 198 198 200 199 198 201 200 200 203 204 206
182 235 265 239 221 204 177 167 116 128 162 231 276 260 246 266 243 143 149 151 149 150 154 163 170 176 180 182 181 183 187 192 193 193 196 203 203 200 196 197 202 203 203 204
184 202 276 285 197 201 171 147 134 139 157 161 230 265 231 208 181 158 154 155 150 146 153 161 172 172 166 165 174 182 185 183 189 193 195 197 199 196 192 199 206 203 200 199
180 163 234 251 241 195 177 178 152 157 203 166 173 259 270 187 165 146 140 140 144 138 141 149 158 151 150 158 173 183 183 186 191 190 189 192 192 189 191 196 201 197 198 197
160 145 192 315 320 213 168 169 159 143 135 155 168 252 291 147 137 130 127 127 132 128 127 134 143 147 151 155 164 174 175 181 182 177 176 177 179 182 188 190 186 182 183 181
137 134 168 198 214 200 190 189 159 137 157 190 204 206 238 181 156 138 132 132 130 129 131 139 142 142 146 147 148 149 148 155 157 159 161 166 174 178 178 175 169 166 164 164
112 154 189 208 211 179 197 204 185 168 177 181 203 190 201 189 170 159 149 140 136 132 131 134 138 140 136 131 133 135 132 129 133 138 145 153 154 150 149 151 152 149 145 147
75 140 179 276 276 192 239 230 201 184 167 169 161 201 200 163 145 147 150 147 148 143 141 136 130 128 129 130 132 128 123 126 123 124 132 134 131 129 131 139 138 131 128 124
82 100 110 255 306 59 268 247 206 186 170 158 176 199 155 149 159 163 158 150 149 146 137 129 126 122 120 121 123 125 120 111 109 112 116 123 127 128 131 133 127 126 121 114
138 110 120 120 77 188 243 277 129 131 111 141 153 156 155 153 134 122 133 137 142 137 125 119 117 114 106 103 105 104 103 101 101 100 101 109 119 121 121 119 120 121 114 112
154 137 119 122 144 251 314 340 28 126 51 58 130 134 126 114 92 64 77 122 130 129 121 116 113 111 104 101 102 101 98 98 97 93 91 96 106 113 114 113 116 115 110 100
113 119 121 127 141 202 254 292 293 106 76 347 124 132 136 120 121 152 120 110 108 105 105 102 96 97 97 97 100 98 97 97 97 95 91 90 97 106 111 112 108 102 101 101
74 83 131 141 158 241 269 300 38 126 194 189 130 132 127 126 145 138 121 109 108 107 105 100 94 93 96 98 99 98 96 94 96 94 89 84 85 93 96 94 94 99 99 95
163 154 161 139 151 234 295 17 125 181 158 132 120 119 109 111 115 118 117 114 112 108 103 101 101 95 88 94 102 101 97 94 93 92 87 83 80 85 90 92 92 94 100 97
112 180 165 162 184 223 153 141 158 133 120 113 115 117 120 123 123 120 116 114 113 110 105 102 107 103 91 91 107 110 105 100 96 91 87 84 82 76 76 85 91 91 91 97
341 26 87 85 67 68 58 85 93 99 106 113 122 124 127 129 128 121 118 114 109 104 104 108 109 109 104 97 99 109 110 105 102 98 94 91 89 81 72 69 70 79 84 97
314 16 60 89 112 63 44 81 109 105 103 105 110 117 125 124 124 123 119 116 112 107 104 108 113 114 110 106 105 108 114 113 107 103 101 97 92 91 83 72 61 67 52 76
312 151 143 199 211 149 156 125 115 111 106 115 118 113 114 119 122 119 116 113 111 108 106 104 101 103 104 107 111 113 117 119 117 111 108 106 104 100 98 95 80 59 67 67
Height
1480 1488 1493 1490 1490 1492 1492 1495 1496 1486 1475 1476 1480 1481 1480 1481 1484 1487 1490 1492 1496 1498 1503 1508 1511 1515 1519 1523 1527 1530 1532 1536 1539 1541 1544 1546 1548 1551 1553 1555 1557 1559 1561 1563
1484 1488 1481 1482 1483 1486 1490 1496 1494 1484 1474 1475 1479 1479 1477 1477 1479 1481 1485 1488 1492 1496 1501 1505 1509 1512 1516 1519 1523 1526 1530 1533 1536 1539 1542 1544 1547 1549 1551 1553 1555 1557 1558 1560
1485 1479 1475 1480 1483 1487 1488 1493 1491 1488 1478 1474 1478 1485 1480 1476 1476 1478 1480 1483 1488 1492 1496 1500 1505 1508 1512 1516 1520 1523 1527 1530 1533 1536 1540 1543 1545 1547 1549 1550 1552 1554 1556 1558
1478 1473 1474 1478 1481 1482 1490 1478 1479 1480 1488 1495 1485 1506 1488 1479 1478 1477 1478 1481 1485 1489 1493 1497 1501 1504 1508 1512 1517 1521 1524 1528 1531 1534 1536 1538 1540 1541 1543 1546 1548 1551 1553 1555
1474 1468 1471 1475 1473 1474 1478 1471 1474 1477 1485 1494 1491 1503 1496 1482 1482 1478 1476 1477 1482 1485 1489 1493 1497 1500 1505 1509 1514 1518 1521 1525 1528 1531 1533 1535 1537 1539 1542 1544 1546 1548 1550 1552
1467 1462 1464 1465 1463 1465 1467 1471 1476 1484 1494 1508 1495 1501 1501 1486 1478 1475 1474 1475 1478 1482 1486 1490 1494 1499 1503 1507 1511 1514 1518 1521 1524 1527 1529 1531 1533 1535 1538 1540 1542 1544 1547 1548
1470 1463 1458 1458 1464 1463 1467 1488 1509 1511 1519 1514 1493 1495 1495 1474 1469 1469 1471 1473 1476 1480 1484 1488 1492 1496 1500 1504 1507 1511 1514 1518 1520 1523 1525 1527 1529 1531 1533 1535 1538 1540 1542 1544
1479 1476 1458 1453 1458 1466 1469 1482 1509 1520 1521 1512 1494 1496 1483 1466 1464 1466 1468 1471 1475 1478 1481 1484 1488 1492 1496 1500 1504 1508 1511 1514 1516 1519 1521 1523 1525 1527 1529 1532 1534 1536 1538 1540
1474 1473 1450 1446 1446 1454 1466 1477 1479 1499 1503 1509 1503 1489 1474 1464 1464 1466 1468 1471 1473 1477 1480 1482 1486 1490 1494 1498 1502 1505 1507 1510 1513 1515 1517 1519 1521 1523 1525 1528 1530 1532 1534 1536
1459 1467 1452 1444 1444 1447 1453 1462 1483 1499 1513 1517 1504 1496 1490 1473 1469 1468 1469 1471 1473 1476 1479 1483 1486 1489 1493 1496 1499 1503 1505 1507 1510 1512 1514 1516 1517 1519 1521 1523 1525 1527 1529 1531
1451 1464 1459 1450 1452 1456 1456 1464 1475 1492 1498 1512 1514 1502 1471 1469 1466 1467 1469 1471 1472 1475 1478 1482 1485 1489 1492 1495 1497 1501 1503 1505 1507 1509 1511 1513 1514 1516 1517 1519 1521 1523 1525 1527
1446 1460 1468 1457 1443 1440 1447 1457 1470 1490 1496 1499 1505 1497 1463 1463 1463 1465 1468 1470 1473 1474 1477 1481 1484 1487 1491 1494 1497 1499 1501 1502 1504 1506 1508 1509 1511 1512 1514 1516 1518 1520 1521 1523
1443 1459 1473 1469 1459 1447 1447 1451 1459 1472 1486 1497 1502 1491 1463 1463 1464 1465 1467 1470 1472 1474 1477 1480 1484 1487 1489 1492 1495 1497 1499 1500 1502 1503 1505 1506 1508 1510 1511 1513 1515 1517 1518 1520
1435 1454 1465 1472 1464 1453 1451 1450 1453 1468 1486 1490 1486 1479 1469 1466 1466 1467 1469 1470 1472 1475 1477 1481 1484 1486 1489 1491 1494 1496 1497 1499 1500 1501 1502 1504 1506 1507 1509 1510 1512 1514 1515 1517
1435 1451 1450 1449 1443 1443 1446 1447 1449 1458 1466 1475 1473 1471 1466 1463 1464 1466 1468 1470 1474 1476 1478 1481 1484 1486 1488 1491 1493 1495 1496 1497 1498 1499 1501 1502 1504 1506 1507 1509 1510 1511 1513 1514
1438 1448 1448 1448 1441 1441 1444 1444 1445 1449 1454 1459 1462 1465 1457 1458 1462 1465 1467 1470 1473 1476 1479 1482 1484 1487 1489 1491 1492 1494 1495 1496 1498 1498 1500 1501 1503 1504 1506 1507 1509 1510 1511 1513
1443 1449 1457 1459 1446 1445 1456 1448 1446 1447 1448 1452 1461 1460 1456 1459 1460 1462 1466 1469 1473 1476 1479 1481 1484 1487 1489 1491 1492 1494 1495 1496 1497 1498 1499 1500 1502 1503 1505 1506 1508 1509 1510 1512
1442 1450 1459 1461 1457 1468 1457 1441 1440 1443 1447 1446 1447 1450 1453 1456 1459 1463 1465 1468 1473 1477 1479 1482 1485 1487 1489 1491 1493 1494 1495 1496 1497 1498 1499 1500 1502 1503 1505 1506 1507 1509 1510 1511
1435 1446 1458 1466 1467 1461 1450 1442 1442 1446 1454 1448 1448 1451 1455 1458 1462 1468 1469 1470 1473 1477 1480 1482 1485 1488 1490 1492 1493 1494 1495 1496 1497 1498 1499 1501 1502 1503 1505 1506 1507 1509 1510 1511
1435 1441 1455 1463 1466 1469 1456 1442 1439 1444 1459 1451 1449 1452 1456 1458 1467 1471 1471 1473 1475 1478 1481 1483 1486 1488 1490 1492 1494 1495 1495 1496 1498 1499 1500 1502 1503 1504 1505 1506 1507 1509 1510 1511
1446 1449 1455 1461 1464 1460 1447 1441 1440 1458 1461 1453 1452 1453 1456 1458 1463 1468 1471 1474 1477 1480 1482 1484 1487 1489 1491 1492 1494 1495 1496 1497 1499 1500 1501 1503 1504 1505 1506 1507 1508 1509 1510 1511
1449 1453 1456 1460 1465 1463 1445 1443 1448 1451 1449 1451 1453 1454 1456 1459 1464 1468 1472 1475 1478 1481 1483 1485 1487 1489 1491 1493 1494 1495 1496 1498 1499 1500 1502 1503 1505 1506 1507 1507 1508 1509 1510 1512
1447 1448 1450 1453 1456 1448 1444 1444 1445 1445 1447 1450 1454 1456 1458 1462 1465 1469 1472 1477 1480 1482 1484 1486 1487 1490 1492 1493 1494 1495 1497 1498 1499 1501 1502 1504 1505 1507 1507 1508 1509 1510 1511 1512
1445 1442 1446 1450 1449 1446 1445 1445 1446 1446 1448 1452 1455 1457 1460 1463 1467 1470 1474 1478 1481 1484 1485 1487 1489 1490 1492 1494 1495 1496 1497 1499 1500 1501 1503 1505 1506 1507 1509 1510 1511 1512 1513 1513
1448 1446 1448 1450 1449 1447 1447 1448 1448 1450 1452 1454 1457 1459 1461 1464 1468 1471 1475 1479 1482 1484 1486 1488 1489 1490 1492 1494 1496 1497 1498 1500 1501 1502 1505 1506 1508 1509 1510 1511 1513 1514 1515 1516
1447 1448 1450 1451 1448 1449 1450 1450 1450 1451 1453 1456 1459 1462 1465 1467 1470 1473 1477 1480 1483 1486 1488 1489 1490 1491 1493 1495 1497 1498 1500 1501 1502 1504 1506 1508 1510 1512 1513 1514 1515 1518 1519 1520